Kalispell, MT

3:20 PM MDT on May 26, 2017 (GMT -0600)
Glacier Park International

Weather History for KGPI - September, 2013

Change the Weather History Date:

Tuesday, September 17, 2013

  Actual Average Record
Temperature  
Mean Temperature 55 °F 54 °F  
Max Temperature 73 °F 69 °F 89 °F (1981)
Min Temperature 37 °F 38 °F 22 °F (1973)
Degree Days  
Heating Degree Days 10 11  
Month to date heating degree days 28 145  
Since 1 July heating degree days 69 315  
Cooling Degree Days 0 0  
Month to date cooling degree days 29 1  
Year to date cooling degree days 264 144  
Growing Degree Days 4 (Base 50)    
Moisture  
Dew Point 42 °F    
Average Humidity 67    
Maximum Humidity 100    
Minimum Humidity 33    
Precipitation  
Precipitation 0.14 in 0.05 in 0.85 in (1985)
Month to date precipitation 1.03 0.82  
Year to date precipitation 11.65 12.43  
Snow  
Snow 0.00 in - - ()
Month to date snowfall 0.0  
Year to date snowfall 10.1  
Since 1 July snowfall 0.0  
Snow Depth 0.00 in    
Sea Level Pressure  
Sea Level Pressure 29.78 in    
Wind  
Wind Speed 3 mph (West)    
Max Wind Speed 26 mph    
Max Gust Speed 36 mph    
Visibility 6 miles    
Events Fog , Rain    
T = Trace of Precipitation, MM = Missing Value Source: NWS Daily Summary

Daily Weather History Graph

Daily Weather History Graph

Search for Another Location

Airport or City:

Trip Planner

Search our weather history database for the weather conditions in past years. The results will help you decide how hot, cold, wet, or windy it might be!

Date:

Astronomy

Sep. 17, 2013 Rise Set
Actual Time 7:17 AM MDT 7:44 PM MDT
Civil Twilight 6:45 AM MDT 8:15 PM MDT
Nautical Twilight 6:08 AM MDT 8:52 PM MDT
Astronomical Twilight 5:29 AM MDT 9:31 PM MDT
Moon 6:37 PM MDT (9/17) 5:10 AM MDT (9/17)
Length of Visible Light 13h 30m
Length of Day
12h 27m
Waxing Gibbous, 96% of the Moon is Illuminated
Sep 17
Waxing Gibbous
Sep 19
Full
Sep 26
Last Quarter
Oct 4
New
Oct 11
First Quarter

Hourly Weather History & Observations

Time (MDT) Temp. Windchill Dew Point Humidity Pressure Visibility Wind Dir Wind Speed Gust Speed Precip Events Conditions
12:55 AM 51.1 °F - 46.0 °F 83% 29.84 in 10.0 mi SW 6.9 mph - N/A   Clear
1:55 AM 46.0 °F 44.8 °F 43.0 °F 89% 29.84 in 10.0 mi SW 3.5 mph - N/A   Clear
2:55 AM 44.1 °F - 43.0 °F 96% 29.84 in 10.0 mi Calm Calm - N/A   Clear
3:55 AM 42.1 °F - 41.0 °F 96% 29.83 in 10.0 mi Calm Calm - N/A   Clear
4:48 AM 41.0 °F - 39.2 °F 93% 29.86 in 2.0 mi Calm Calm - N/A   Clear
4:55 AM 43.0 °F - 42.1 °F 97% 29.83 in 8.0 mi Calm Calm - N/A   Clear
5:13 AM 39.2 °F - 39.2 °F 100% 29.85 in 1.2 mi Calm Calm - N/A   Clear
5:21 AM 41.0 °F - 41.0 °F 100% 29.85 in 0.5 mi Calm Calm - N/A Fog Fog
5:26 AM 41.0 °F - 41.0 °F 100% 29.85 in 1.5 mi Calm Calm - N/A   Clear
5:28 AM 41.0 °F - 41.0 °F 100% 29.85 in 4.0 mi Calm Calm - N/A   Clear
5:55 AM 41.0 °F - 39.9 °F 96% 29.83 in 6.0 mi Calm Calm - N/A   Clear
6:07 AM 39.2 °F - 39.2 °F 100% 29.85 in 1.8 mi Calm Calm - N/A   Clear
6:18 AM 37.4 °F - 37.4 °F 100% 29.85 in 0.8 mi Calm Calm - N/A   Clear
6:27 AM 39.2 °F - 37.4 °F 93% 29.85 in 0.5 mi Calm Calm - N/A Fog Fog
6:41 AM 39.2 °F 37.0 °F 37.4 °F 93% 29.84 in 1.2 mi NW 3.5 mph - N/A   Scattered Clouds
6:44 AM 39.2 °F - 37.4 °F 93% 29.84 in 2.0 mi Calm Calm - N/A   Scattered Clouds
6:55 AM 37.0 °F - 37.0 °F 100% 29.84 in 1.2 mi Calm Calm - N/A   Partly Cloudy
7:00 AM 37.4 °F 34.9 °F 37.4 °F 100% 29.84 in 0.8 mi WNW 3.5 mph - N/A   Mist
7:03 AM 39.2 °F 37.0 °F 39.2 °F 100% 29.84 in 1.0 mi WNW 3.5 mph - N/A   Clear
7:08 AM 39.2 °F - 39.2 °F 100% 29.84 in 2.0 mi Calm Calm - N/A   Clear
7:16 AM 39.2 °F - 39.2 °F 100% 29.84 in 3.0 mi Calm Calm - N/A   Clear
7:53 AM 39.2 °F 37.0 °F 39.2 °F 100% 29.84 in 8.0 mi SSE 3.5 mph - N/A   Scattered Clouds
7:55 AM 41.0 °F 39.0 °F 39.0 °F 93% 29.84 in 10.0 mi South 3.5 mph - N/A   Scattered Clouds
8:55 AM 48.9 °F - 46.0 °F 90% 29.83 in 10.0 mi Calm Calm - N/A   Clear
9:55 AM 57.0 °F - 48.0 °F 72% 29.81 in 10.0 mi North 4.6 mph - N/A   Clear
10:55 AM 63.0 °F - 46.9 °F 56% 29.78 in 10.0 mi Calm Calm - N/A   Clear
11:55 AM 63.0 °F - 46.9 °F 56% 29.77 in 10.0 mi South 3.5 mph - N/A   Clear
12:55 PM 64.0 °F - 46.0 °F 52% 29.74 in 10.0 mi Calm Calm - N/A   Clear
1:55 PM 66.0 °F - 44.1 °F 45% 29.74 in 10.0 mi Calm Calm - N/A   Clear
2:55 PM 68.0 °F - 43.0 °F 40% 29.71 in 10.0 mi SE 3.5 mph - N/A   Clear
3:55 PM 70.0 °F - 39.9 °F 33% 29.67 in 10.0 mi Variable 3.5 mph - N/A   Clear
4:55 PM 71.1 °F - 41.0 °F 34% 29.63 in 10.0 mi Variable 3.5 mph - N/A   Partly Cloudy
5:55 PM 70.0 °F - 42.1 °F 36% 29.62 in 10.0 mi Calm Calm - N/A   Mostly Cloudy
6:55 PM 70.0 °F - 39.9 °F 33% 29.60 in 10.0 mi Calm Calm - N/A   Clear
7:55 PM 60.1 °F - 45.0 °F 57% 29.59 in 10.0 mi NW 3.5 mph - N/A   Clear
8:55 PM 55.9 °F - 45.0 °F 67% 29.60 in 10.0 mi NW 3.5 mph - N/A   Partly Cloudy
9:55 PM 59.0 °F - 48.0 °F 67% 29.62 in 10.0 mi WSW 19.6 mph 35.7 mph 0.00 in Rain Light Rain
10:55 PM 54.0 °F - 51.1 °F 90% 29.67 in 9.0 mi NE 8.1 mph - 0.05 in Rain Rain
11:55 PM 54.0 °F - 51.1 °F 90% 29.67 in 10.0 mi North 6.9 mph - 0.09 in   Overcast